AUA14D LOWW-LSZH

Flight info

Callsign AUA14D
Flight time 0h 57m
Altitude 30000
Route SOVIL2B/16 SOVIL DCT SITNI DCT BAGSI DCT MATIG DCT TRAUN DCT KONIN/N0365F120 L856 NEGRA
Aircraft A320/M-SDE3FGHIRWY/LB1

Departure

Time 2026-05-05 17:35
Airport Vienna International Airport (LOWW)

Arrival

Time 2026-05-05 18:33
Airport Zürich Airport (LSZH)
Time Latitude Longitude Altitude Speed Heading
2026-05-05 17:00 48.11692 16.56845 609 ft 0 kts 25°
2026-05-05 17:26 48.11687 16.56842 624 ft 4 kts 26°
2026-05-05 17:26 48.11664 16.56823 626 ft 4 kts 33°
2026-05-05 17:27 48.11643 16.56798 622 ft 4 kts 49°
2026-05-05 17:27 48.11631 16.56767 623 ft 4 kts 96°
2026-05-05 17:27 48.11634 16.56750 623 ft 1 kts 116°
2026-05-05 17:27 48.11634 16.56749 623 ft 0 kts 116°
2026-05-05 17:29 48.11631 16.56759 623 ft 3 kts 116°
2026-05-05 17:30 48.11620 16.56793 625 ft 5 kts 116°
2026-05-05 17:30 48.11602 16.56848 623 ft 8 kts 116°
2026-05-05 17:30 48.11565 16.56960 622 ft 14 kts 116°
2026-05-05 17:30 48.11521 16.57097 618 ft 15 kts 115°
2026-05-05 17:31 48.11473 16.57242 615 ft 16 kts 116°
2026-05-05 17:31 48.11434 16.57362 615 ft 6 kts 113°
2026-05-05 17:31 48.11453 16.57436 620 ft 9 kts 38°
2026-05-05 17:31 48.11511 16.57466 610 ft 10 kts
2026-05-05 17:32 48.11584 16.57443 621 ft 12 kts 346°
2026-05-05 17:32 48.11661 16.57411 617 ft 11 kts 343°
2026-05-05 17:32 48.11739 16.57376 612 ft 12 kts 343°
2026-05-05 17:32 48.11823 16.57339 617 ft 12 kts 343°
2026-05-05 17:33 48.11900 16.57306 616 ft 11 kts 345°
2026-05-05 17:33 48.11973 16.57301 617 ft 10 kts 26°
2026-05-05 17:33 48.12002 16.57381 613 ft 8 kts 72°
2026-05-05 17:33 48.12015 16.57462 610 ft 7 kts 83°
2026-05-05 17:34 48.11998 16.57583 615 ft 15 kts 107°
2026-05-05 17:34 48.11978 16.57689 613 ft 16 kts 105°
2026-05-05 17:34 48.11941 16.57828 623 ft 12 kts 140°
2026-05-05 17:34 48.11901 16.57850 613 ft 7 kts 162°
2026-05-05 17:35 48.11648 16.57958 616 ft 72 kts 165°
2026-05-05 17:35 48.10990 16.58235 618 ft 125 kts 164°
2026-05-05 17:35 48.10082 16.58600 1095 ft 131 kts 168°
2026-05-05 17:35 48.09192 16.58942 1733 ft 134 kts 168°
2026-05-05 17:36 48.08296 16.59322 2432 ft 133 kts 170°
2026-05-05 17:36 48.07379 16.59752 2921 ft 146 kts 170°
2026-05-05 17:36 48.06333 16.60062 3216 ft 161 kts 193°
2026-05-05 17:36 48.05364 16.59122 3486 ft 183 kts 228°
2026-05-05 17:37 48.04552 16.57518 3777 ft 205 kts 230°
2026-05-05 17:37 48.03636 16.55717 4158 ft 230 kts 230°
2026-05-05 17:37 48.02634 16.53765 4832 ft 241 kts 230°
2026-05-05 17:37 48.01708 16.51633 5670 ft 251 kts 244°
2026-05-05 17:38 48.01428 16.49018 6460 ft 265 kts 269°
2026-05-05 17:38 48.01525 16.46261 7306 ft 268 kts 267°
2026-05-05 17:38 48.01625 16.43456 8103 ft 273 kts 269°
2026-05-05 17:38 48.01724 16.40617 8986 ft 276 kts 269°
2026-05-05 17:39 48.01819 16.37742 9800 ft 280 kts 269°
2026-05-05 17:39 48.01912 16.34810 10460 ft 290 kts 269°
2026-05-05 17:39 48.02008 16.31689 10710 ft 313 kts 269°
2026-05-05 17:39 48.02112 16.28319 10917 ft 336 kts 269°
2026-05-05 17:40 48.02224 16.24723 11160 ft 355 kts 270°
2026-05-05 17:40 48.02343 16.20982 11679 ft 364 kts 270°
2026-05-05 17:40 48.02467 16.17187 12354 ft 369 kts 271°
2026-05-05 17:40 48.02590 16.13338 13048 ft 372 kts 270°
2026-05-05 17:41 48.02709 16.09519 13747 ft 374 kts 270°
2026-05-05 17:41 48.02827 16.05611 14346 ft 377 kts 270°
2026-05-05 17:41 48.02944 16.01679 14936 ft 380 kts 271°
2026-05-05 17:41 48.03059 15.97707 15486 ft 384 kts 270°
2026-05-05 17:42 48.03171 15.93701 16036 ft 389 kts 270°
2026-05-05 17:42 48.03285 15.89642 16599 ft 392 kts 270°
2026-05-05 17:42 48.03400 15.85556 17192 ft 395 kts 270°
2026-05-05 17:42 48.03515 15.81447 17788 ft 397 kts 270°
2026-05-05 17:43 48.03629 15.77301 18264 ft 402 kts 270°
2026-05-05 17:43 48.03743 15.73119 18716 ft 405 kts 270°
2026-05-05 17:43 48.03855 15.68903 19195 ft 407 kts 270°
2026-05-05 17:43 48.03964 15.64668 19682 ft 409 kts 270°
2026-05-05 17:44 48.04074 15.60399 20159 ft 411 kts 270°
2026-05-05 17:44 48.04183 15.56121 20637 ft 414 kts 270°
2026-05-05 17:44 48.04292 15.51813 21102 ft 416 kts 270°
2026-05-05 17:44 48.04399 15.47472 21550 ft 419 kts 270°
2026-05-05 17:45 48.04505 15.43101 21922 ft 423 kts 270°
2026-05-05 17:45 48.04612 15.38684 22336 ft 426 kts 270°
2026-05-05 17:45 48.04712 15.34319 22798 ft 427 kts 269°
2026-05-05 17:45 48.04795 15.29889 23296 ft 427 kts 269°
2026-05-05 17:46 48.04865 15.25442 23634 ft 429 kts 269°
2026-05-05 17:46 48.04926 15.20975 24014 ft 430 kts 268°
2026-05-05 17:46 48.04983 15.16505 24409 ft 431 kts 268°
2026-05-05 17:46 48.05040 15.12009 24708 ft 434 kts 268°
2026-05-05 17:47 48.05098 15.07492 24997 ft 436 kts 268°
2026-05-05 17:47 48.05160 15.02948 25318 ft 439 kts 269°
2026-05-05 17:47 48.05226 14.98352 25547 ft 443 kts 269°
2026-05-05 17:47 48.05292 14.93733 25804 ft 446 kts 269°
2026-05-05 17:48 48.05354 14.89085 26103 ft 448 kts 269°
2026-05-05 17:48 48.05415 14.84415 26383 ft 450 kts 269°
2026-05-05 17:48 48.05471 14.79736 26693 ft 451 kts 269°
2026-05-05 17:48 48.05517 14.75042 26961 ft 453 kts 268°
2026-05-05 17:49 48.05552 14.70380 27257 ft 454 kts 268°
2026-05-05 17:49 48.05583 14.65670 27671 ft 453 kts 268°
2026-05-05 17:49 48.05611 14.60970 28103 ft 452 kts 268°
2026-05-05 17:49 48.05642 14.56286 28528 ft 451 kts 268°
2026-05-05 17:50 48.05674 14.51605 28951 ft 450 kts 268°
2026-05-05 17:50 48.05705 14.46944 29376 ft 448 kts 268°
2026-05-05 17:50 48.05730 14.42279 29685 ft 448 kts 268°
2026-05-05 17:51 48.05767 14.32949 29730 ft 449 kts 267°
2026-05-05 17:51 48.05806 14.23604 29731 ft 449 kts 267°
2026-05-05 17:52 48.05840 14.14268 29736 ft 448 kts 267°
2026-05-05 17:52 48.05864 14.04966 29739 ft 447 kts 267°
2026-05-05 17:53 48.05880 13.95652 29749 ft 447 kts 267°
2026-05-05 17:53 48.05888 13.86361 29757 ft 447 kts 266°
2026-05-05 17:54 48.05883 13.77125 29756 ft 447 kts 266°
2026-05-05 17:54 48.05875 13.67844 29777 ft 446 kts 266°
2026-05-05 17:55 48.05864 13.58569 29776 ft 446 kts 266°
2026-05-05 17:55 48.05459 13.49375 29774 ft 442 kts 259°
2026-05-05 17:56 48.04689 13.40269 29770 ft 442 kts 259°
2026-05-05 17:56 48.03915 13.31168 29780 ft 442 kts 259°
2026-05-05 17:57 48.03134 13.22072 29798 ft 441 kts 259°
2026-05-05 17:57 48.02343 13.12989 29797 ft 441 kts 259°
2026-05-05 17:58 48.01548 13.03916 29793 ft 441 kts 259°
2026-05-05 17:58 48.00752 12.94904 29796 ft 440 kts 259°
2026-05-05 17:59 47.99943 12.85839 29801 ft 440 kts 259°
2026-05-05 17:59 47.99129 12.76774 29821 ft 440 kts 259°
2026-05-05 18:00 47.98308 12.67719 29811 ft 440 kts 259°
2026-05-05 18:00 47.97471 12.58688 29810 ft 440 kts 259°
2026-05-05 18:01 47.96629 12.49641 29810 ft 439 kts 259°
2026-05-05 18:01 47.95790 12.40626 29826 ft 438 kts 259°
2026-05-05 18:02 47.94951 12.31706 29826 ft 437 kts 258°
2026-05-05 18:02 47.94096 12.22722 29826 ft 436 kts 258°
2026-05-05 18:03 47.93247 12.13774 29822 ft 436 kts 258°
2026-05-05 18:03 47.92390 12.04831 29821 ft 436 kts 258°
2026-05-05 18:04 47.91523 11.95889 29820 ft 436 kts 258°
2026-05-05 18:04 47.90644 11.86949 29832 ft 437 kts 258°
2026-05-05 18:05 47.89757 11.77991 29814 ft 437 kts 258°
2026-05-05 18:05 47.88869 11.69083 29816 ft 438 kts 258°
2026-05-05 18:06 47.87967 11.60110 29821 ft 438 kts 258°
2026-05-05 18:06 47.87057 11.51134 29825 ft 438 kts 258°
2026-05-05 18:07 47.86138 11.42155 29845 ft 438 kts 258°
2026-05-05 18:07 47.85211 11.33187 29845 ft 438 kts 258°
2026-05-05 18:08 47.84282 11.24236 29852 ft 437 kts 258°
2026-05-05 18:08 47.83350 11.15312 29849 ft 437 kts 258°
2026-05-05 18:09 47.82414 11.06385 29757 ft 437 kts 258°
2026-05-05 18:09 47.81941 11.01918 29419 ft 437 kts 257°
2026-05-05 18:09 47.81468 10.97502 29058 ft 440 kts 257°
2026-05-05 18:09 47.80984 10.93009 28705 ft 441 kts 257°
2026-05-05 18:10 47.80496 10.88494 28350 ft 442 kts 257°
2026-05-05 18:10 47.80006 10.83977 28001 ft 443 kts 257°
2026-05-05 18:10 47.79511 10.79449 27656 ft 444 kts 257°
2026-05-05 18:10 47.79015 10.74910 27313 ft 445 kts 257°
2026-05-05 18:11 47.78518 10.70373 26975 ft 446 kts 257°
2026-05-05 18:11 47.78018 10.65819 26639 ft 447 kts 257°
2026-05-05 18:11 47.77516 10.61258 26307 ft 448 kts 257°
2026-05-05 18:11 47.77010 10.56682 26008 ft 449 kts 258°
2026-05-05 18:12 47.76501 10.52098 25692 ft 450 kts 258°
2026-05-05 18:12 47.75988 10.47499 25366 ft 452 kts 258°
2026-05-05 18:12 47.75471 10.42891 25049 ft 453 kts 258°
2026-05-05 18:12 47.74951 10.38279 24737 ft 452 kts 258°
2026-05-05 18:13 47.74554 10.33704 24434 ft 454 kts 264°
2026-05-05 18:13 47.74446 10.29019 24126 ft 455 kts 265°
2026-05-05 18:13 47.74346 10.24323 23831 ft 455 kts 265°
2026-05-05 18:13 47.74242 10.19613 23525 ft 456 kts 265°
2026-05-05 18:14 47.74134 10.14912 23182 ft 454 kts 265°
2026-05-05 18:14 47.74023 10.10236 22832 ft 454 kts 265°
2026-05-05 18:14 47.73908 10.05555 22311 ft 451 kts 265°
2026-05-05 18:14 47.73796 10.00911 21773 ft 448 kts 266°
2026-05-05 18:15 47.73686 9.96306 21250 ft 445 kts 266°
2026-05-05 18:15 47.73575 9.91732 20734 ft 441 kts 266°
2026-05-05 18:15 47.73462 9.87190 20228 ft 438 kts 266°
2026-05-05 18:15 47.73347 9.82693 19667 ft 434 kts 266°
2026-05-05 18:16 47.73230 9.78227 19033 ft 430 kts 266°
2026-05-05 18:16 47.73113 9.73800 18413 ft 426 kts 266°
2026-05-05 18:16 47.72994 9.69423 17761 ft 422 kts 266°
2026-05-05 18:16 47.72871 9.65079 17065 ft 418 kts 266°
2026-05-05 18:17 47.72750 9.60835 16399 ft 414 kts 266°
2026-05-05 18:17 47.72630 9.56581 15732 ft 410 kts 266°
2026-05-05 18:17 47.72510 9.52316 15078 ft 406 kts 266°
2026-05-05 18:17 47.72309 9.48151 14432 ft 402 kts 261°
2026-05-05 18:18 47.71681 9.44200 13829 ft 397 kts 251°
2026-05-05 18:18 47.70598 9.40451 13164 ft 393 kts 241°
2026-05-05 18:18 47.69103 9.37078 12895 ft 391 kts 232°
2026-05-05 18:18 47.67398 9.33939 12864 ft 391 kts 234°
2026-05-05 18:19 47.66158 9.30375 12871 ft 391 kts 252°
2026-05-05 18:19 47.65693 9.26397 12717 ft 390 kts 263°
2026-05-05 18:19 47.65460 9.22467 12396 ft 376 kts 264°
2026-05-05 18:19 47.65258 9.18666 12061 ft 363 kts 264°
2026-05-05 18:20 47.65070 9.15025 11727 ft 342 kts 264°
2026-05-05 18:20 47.64900 9.11629 11393 ft 318 kts 264°
2026-05-05 18:20 47.64735 9.08463 11075 ft 299 kts 264°
2026-05-05 18:20 47.64583 9.05479 10755 ft 282 kts 264°
2026-05-05 18:21 47.64445 9.02651 10438 ft 268 kts 264°
2026-05-05 18:21 47.64318 8.99959 10140 ft 256 kts 264°
2026-05-05 18:21 47.64203 8.97412 9981 ft 241 kts 264°
2026-05-05 18:21 47.64098 8.95003 9589 ft 235 kts 264°
2026-05-05 18:22 47.63993 8.92589 9074 ft 234 kts 264°
2026-05-05 18:22 47.63889 8.90197 8569 ft 231 kts 264°
2026-05-05 18:22 47.63910 8.87818 8057 ft 234 kts 278°
2026-05-05 18:22 47.64321 8.85496 7877 ft 233 kts 283°
2026-05-05 18:23 47.64794 8.83193 7896 ft 234 kts 283°
2026-05-05 18:23 47.65291 8.80900 7890 ft 233 kts 284°
2026-05-05 18:23 47.65793 8.78627 7891 ft 232 kts 284°
2026-05-05 18:23 47.66298 8.76357 7887 ft 232 kts 284°
2026-05-05 18:24 47.66806 8.74084 7891 ft 232 kts 284°
2026-05-05 18:24 47.67313 8.71814 7890 ft 232 kts 284°
2026-05-05 18:24 47.67821 8.69538 7885 ft 232 kts 284°
2026-05-05 18:24 47.68324 8.67260 7885 ft 232 kts 284°
2026-05-05 18:25 47.68819 8.65006 7896 ft 232 kts 283°
2026-05-05 18:25 47.68987 8.64241 7892 ft 232 kts 284°
2026-05-05 18:25 47.69741 8.60427 7655 ft 228 kts 270°
2026-05-05 18:25 47.69574 8.58137 7406 ft 223 kts 255°
2026-05-05 18:26 47.69216 8.55903 7148 ft 222 kts 254°
2026-05-05 18:26 47.68830 8.53693 6902 ft 221 kts 254°
2026-05-05 18:26 47.68436 8.51487 6663 ft 221 kts 253°
2026-05-05 18:26 47.68042 8.49293 6415 ft 220 kts 254°
2026-05-05 18:27 47.67646 8.47115 6017 ft 217 kts 253°
2026-05-05 18:27 47.67003 8.45109 5463 ft 216 kts 237°
2026-05-05 18:27 47.66118 8.43304 4928 ft 216 kts 234°
2026-05-05 18:27 47.65203 8.41537 4398 ft 215 kts 233°
2026-05-05 18:28 47.63369 8.38026 4006 ft 213 kts 232°
2026-05-05 18:28 47.62202 8.36755 4004 ft 213 kts 200°
2026-05-05 18:28 47.60765 8.36764 4003 ft 209 kts 164°
2026-05-05 18:29 47.59578 8.37970 4010 ft 212 kts 142°
2026-05-05 18:29 47.58542 8.39423 4024 ft 196 kts 141°
2026-05-05 18:29 47.57891 8.40333 3955 ft 187 kts 142°
2026-05-05 18:29 47.56666 8.42023 3694 ft 175 kts 142°
2026-05-05 18:30 47.55800 8.43213 3486 ft 166 kts 142°
2026-05-05 18:30 47.54944 8.44384 3268 ft 168 kts 141°
2026-05-05 18:30 47.54088 8.45557 3051 ft 168 kts 141°
2026-05-05 18:30 47.53251 8.46706 2852 ft 158 kts 141°
2026-05-05 18:31 47.52730 8.47420 2700 ft 151 kts 141°
2026-05-05 18:31 47.51974 8.48456 2498 ft 146 kts 141°
2026-05-05 18:31 47.51241 8.49461 2286 ft 143 kts 139°
2026-05-05 18:31 47.50512 8.50463 2078 ft 142 kts 139°
2026-05-05 18:32 47.49791 8.51447 1867 ft 141 kts 139°
2026-05-05 18:32 47.49075 8.52422 1679 ft 139 kts 139°
2026-05-05 18:32 47.48366 8.53391 1506 ft 139 kts 138°
2026-05-05 18:32 47.47667 8.54346 1400 ft 127 kts 138°
2026-05-05 18:33 47.47139 8.55062 1397 ft 84 kts 137°
2026-05-05 18:33 47.46796 8.55524 1408 ft 42 kts 139°
2026-05-05 18:33 47.46584 8.55684 1405 ft 24 kts 168°
2026-05-05 18:33 47.46506 8.55709 1398 ft 9 kts 167°
2026-05-05 18:34 47.46465 8.55723 1397 ft 5 kts 167°
2026-05-05 18:34 47.46430 8.55734 1398 ft 6 kts 167°
2026-05-05 18:34 47.46370 8.55769 1402 ft 12 kts 151°
2026-05-05 18:34 47.46304 8.55863 1403 ft 15 kts 135°
2026-05-05 18:35 47.46221 8.55978 1402 ft 17 kts 145°
2026-05-05 18:35 47.46122 8.55998 1400 ft 15 kts 187°
2026-05-05 18:35 47.46019 8.55979 1402 ft 15 kts 186°
2026-05-05 18:35 47.45942 8.55956 1406 ft 9 kts 198°
2026-05-05 18:36 47.45886 8.55927 1409 ft 5 kts 200°
2026-05-05 18:36 47.45812 8.55887 1403 ft 28 kts 198°
2026-05-05 18:36 47.45680 8.55864 1400 ft 2 kts 184°
2026-05-05 18:36 47.45666 8.55862 1398 ft 0 kts 184°
2026-05-05 18:37 47.45658 8.55861 1399 ft 0 kts 184°
2026-05-05 18:37 47.45645 8.55860 1397 ft 0 kts 184°
2026-05-05 18:37 47.45634 8.55859 1397 ft 9 kts 184°
2026-05-05 18:38 47.45529 8.55828 1397 ft 17 kts 220°
2026-05-05 18:38 47.45515 8.55666 1399 ft 13 kts 278°
2026-05-05 18:38 47.45523 8.55533 1397 ft 13 kts 275°
2026-05-05 18:38 47.45512 8.55446 1404 ft 0 kts 238°
2026-05-05 18:39 47.45510 8.55440 1405 ft 4 kts 239°
2026-05-05 18:39 47.45469 8.55404 1403 ft 16 kts 201°
2026-05-05 18:39 47.45424 8.55379 1403 ft 2 kts 200°
2026-05-05 18:40 47.45356 8.55397 1399 ft 7 kts 150°
2026-05-05 18:40 47.45352 8.55400 1399 ft 0 kts 150°
2026-05-05 18:41 47.45350 8.55401 1399 ft 2 kts 150°
2026-05-05 18:41 47.45319 8.55451 1399 ft 10 kts 121°
2026-05-05 18:42 47.45282 8.55555 1404 ft 12 kts 109°
2026-05-05 18:42 47.45273 8.55680 1405 ft 10 kts 68°
2026-05-05 18:42 47.45315 8.55696 1398 ft 6 kts
2026-05-05 18:42 47.45344 8.55699 1397 ft 2 kts
2026-05-05 18:43 47.45345 8.55700 1401 ft 0 kts